DELTA 1 DEB, 21297

Orbit data source: Space-Track

DELTA 1 DEB, 21297 is space debris in SSO originally from a launch on Thu, 12 Jun 1975 UTC launched from the Air Force Western Test Range (AFWTR). Debris objects in space refer to the collection of defunct objects orbiting the Earth. Examples of debris include non-operational satellites, rocket bodies, and fragments generated from explosions, collisions, or faulty payload assembly.

Loading next visibility...
Identifier
21297, 1975-052AJ
Orbit
SSO
Country
Flag of USUS
Related business
Manufacturer
Unknown
Mission
Spacecraft
Bus & Motor
Unknown
Mass
Unknown
Launch date (UTC)
1975-06-12 (51 years ago)
Launch vehicle
Unknown
Launch site
Air Force Western Test Range (AFWTR)
Object type
Payload
Rocket body
Debris
Shape & HBR
Unknown shape, 0.4 m
Radar Cross Section
Medium (>0.1 m² and <1 m²)

Expand to show TLE details & history
Last TLE update: 2 days ago

TLE from 2 days ago
0 DELTA 1 DEB
1 21297U 75052AJ  26171.40387884  .00000061  00000-0  20631-3 0  9991
2 21297  99.6785   0.1083 0069632 319.2369 108.3438 13.33304538706629
Epoch: 2026-06-20T09:41Z
TLE epoch observation values (Epoch: 2026-06-20T09:41:35.131Z)
Latitude
66.45053°
Longitude
-76.81915°
Altitude
1,162.524 km
Speed
7.27 km/s
True Right ascension
22h 28m 47s
True Declination
66° 19' 52"
Sunlit
Object was in daylight at epoch
Visualization orbit readout
Latitude
Unknown
Longitude
Unknown
Altitude
Unknown
Speed
Unknown
Apparent Right ascension
Unknown
Apparent Declination
Unknown
Sunlit
N/A
Visualization observer readout
Local Sidereal Time
10:53:35
Azimuth
Unknown
Elevation
Unknown
Doppler factor
Unknown
Orbital elements
Apogee altitude
1,183.939 km
Perigee altitude
1,079.355 km
Semi-major axis
7,509.784 km
Eccentricity
0.00696
Inclination
99.6785°
RAAN
0.1083°
Arg. of periapsis
319.2369°
True anomaly
109.09909°
Mean anomaly
108.3438°
Eccentric anomaly
108.72165°
Mean motion
3.33505 °/min
Orbital period
107.94 mins
BSTAR
0.00020631
Loading maneuver chart data...
Computing Atmospheric mass density...
Loading historical data...
Loading historical data...
Loading historical data...
Loading historical data...
Loading historical data...
Loading historical data...
Loading historical data...

Documentation

Showing up to 5 results
|